GLO1726 SBEG-SBSN

Flight info

Callsign GLO1726
Flight time 0h 56m
Altitude 35000
Route XOLOK UZ81 TOBUX DCT STM DCT
Aircraft B738/M-SDFGIKLORWXY/LB1

Departure

Time 2026-04-25 16:30
Airport Eduardo Gomes International Airport (SBEG)

Arrival

Time 2026-04-25 17:26
Airport Santarém - Maestro Wilson Fonseca International Airport (SBSN)
Time Latitude Longitude Altitude Speed Heading
2026-04-25 16:05 -3.03272 -60.04581 265 ft 0 kts 357°
2026-04-25 16:22 -3.03289 -60.04581 267 ft 4 kts
2026-04-25 16:22 -3.03316 -60.04582 267 ft 4 kts
2026-04-25 16:23 -3.03342 -60.04589 267 ft 4 kts 32°
2026-04-25 16:23 -3.03356 -60.04605 267 ft 2 kts 89°
2026-04-25 16:23 -3.03356 -60.04606 267 ft 0 kts 90°
2026-04-25 16:25 -3.03356 -60.04593 267 ft 5 kts 90°
2026-04-25 16:25 -3.03353 -60.04537 267 ft 9 kts 83°
2026-04-25 16:26 -3.03342 -60.04473 267 ft 9 kts 77°
2026-04-25 16:26 -3.03334 -60.04411 267 ft 9 kts 102°
2026-04-25 16:26 -3.03383 -60.04377 267 ft 9 kts 166°
2026-04-25 16:26 -3.03440 -60.04359 267 ft 8 kts 156°
2026-04-25 16:27 -3.03489 -60.04330 267 ft 9 kts 144°
2026-04-25 16:27 -3.03539 -60.04282 267 ft 11 kts 129°
2026-04-25 16:27 -3.03585 -60.04203 267 ft 15 kts 111°
2026-04-25 16:27 -3.03615 -60.04097 267 ft 16 kts 104°
2026-04-25 16:28 -3.03644 -60.03992 267 ft 15 kts 105°
2026-04-25 16:28 -3.03671 -60.03891 268 ft 15 kts 105°
2026-04-25 16:28 -3.03708 -60.03799 268 ft 14 kts 132°
2026-04-25 16:28 -3.03794 -60.03766 268 ft 13 kts 181°
2026-04-25 16:29 -3.03858 -60.03823 267 ft 14 kts 254°
2026-04-25 16:29 -3.03861 -60.04014 268 ft 57 kts 270°
2026-04-25 16:29 -3.03860 -60.04661 268 ft 126 kts 270°
2026-04-25 16:29 -3.03862 -60.05740 280 ft 181 kts 269°
2026-04-25 16:30 -3.03874 -60.07033 896 ft 187 kts 268°
2026-04-25 16:30 -3.03877 -60.08366 1538 ft 199 kts 270°
2026-04-25 16:30 -3.03852 -60.09832 1796 ft 223 kts 271°
2026-04-25 16:30 -3.03808 -60.11454 2051 ft 241 kts 272°
2026-04-25 16:31 -3.03374 -60.13137 2210 ft 263 kts 305°
2026-04-25 16:31 -3.01953 -60.14263 2830 ft 264 kts 342°
2026-04-25 16:31 -3.00179 -60.14514 3547 ft 265 kts
2026-04-25 16:31 -2.98370 -60.14201 4327 ft 264 kts 14°
2026-04-25 16:32 -2.96576 -60.13751 5122 ft 266 kts 15°
2026-04-25 16:32 -2.94764 -60.13294 5830 ft 271 kts 14°
2026-04-25 16:32 -2.92914 -60.12851 6545 ft 276 kts 13°
2026-04-25 16:32 -2.91042 -60.12417 7321 ft 276 kts 13°
2026-04-25 16:33 -2.89153 -60.11987 8025 ft 281 kts 13°
2026-04-25 16:33 -2.87274 -60.11429 8748 ft 285 kts 28°
2026-04-25 16:33 -2.85801 -60.10125 9538 ft 287 kts 56°
2026-04-25 16:33 -2.85015 -60.08288 10266 ft 293 kts 77°
2026-04-25 16:34 -2.84664 -60.06206 10542 ft 316 kts 81°
2026-04-25 16:34 -2.84386 -60.03964 10905 ft 331 kts 82°
2026-04-25 16:34 -2.84125 -60.01652 11555 ft 336 kts 83°
2026-04-25 16:34 -2.83862 -59.99322 12298 ft 339 kts 82°
2026-04-25 16:35 -2.83590 -59.96965 13056 ft 342 kts 82°
2026-04-25 16:35 -2.83311 -59.94620 13786 ft 345 kts 82°
2026-04-25 16:35 -2.83016 -59.92189 14431 ft 350 kts 82°
2026-04-25 16:35 -2.82721 -59.89794 15092 ft 353 kts 82°
2026-04-25 16:36 -2.82416 -59.87343 15765 ft 357 kts 82°
2026-04-25 16:36 -2.82312 -59.86510 15981 ft 359 kts 82°
2026-04-25 16:36 -2.81791 -59.82362 17082 ft 365 kts 82°
2026-04-25 16:36 -2.81472 -59.79829 17740 ft 368 kts 82°
2026-04-25 16:37 -2.81150 -59.77274 18351 ft 372 kts 82°
2026-04-25 16:37 -2.80824 -59.74690 18907 ft 375 kts 82°
2026-04-25 16:37 -2.80496 -59.72089 19485 ft 378 kts 82°
2026-04-25 16:37 -2.80166 -59.69476 20040 ft 380 kts 82°
2026-04-25 16:38 -2.79833 -59.66839 20596 ft 383 kts 82°
2026-04-25 16:38 -2.79497 -59.64179 21142 ft 386 kts 82°
2026-04-25 16:38 -2.79160 -59.61511 21675 ft 389 kts 82°
2026-04-25 16:38 -2.78819 -59.58817 22201 ft 391 kts 82°
2026-04-25 16:39 -2.78480 -59.56136 22729 ft 394 kts 82°
2026-04-25 16:39 -2.78136 -59.53412 23231 ft 397 kts 82°
2026-04-25 16:39 -2.77789 -59.50662 23688 ft 399 kts 82°
2026-04-25 16:39 -2.77438 -59.47892 24103 ft 402 kts 82°
2026-04-25 16:40 -2.77087 -59.45113 24523 ft 404 kts 82°
2026-04-25 16:40 -2.76734 -59.42319 24946 ft 406 kts 82°
2026-04-25 16:40 -2.76378 -59.39511 25360 ft 408 kts 82°
2026-04-25 16:40 -2.76021 -59.36690 25762 ft 410 kts 82°
2026-04-25 16:41 -2.75662 -59.33850 26163 ft 412 kts 82°
2026-04-25 16:41 -2.75423 -59.31960 26423 ft 414 kts 82°
2026-04-25 16:41 -2.74572 -59.25242 27336 ft 419 kts 82°
2026-04-25 16:42 -2.74205 -59.22347 27716 ft 421 kts 82°
2026-04-25 16:42 -2.73836 -59.19433 28094 ft 423 kts 82°
2026-04-25 16:42 -2.73465 -59.16507 28461 ft 425 kts 82°
2026-04-25 16:42 -2.73092 -59.13563 28824 ft 428 kts 82°
2026-04-25 16:43 -2.72717 -59.10605 29176 ft 430 kts 82°
2026-04-25 16:43 -2.72346 -59.07673 29524 ft 432 kts 82°
2026-04-25 16:43 -2.71966 -59.04683 29862 ft 434 kts 82°
2026-04-25 16:43 -2.71584 -59.01669 30186 ft 436 kts 82°
2026-04-25 16:44 -2.71216 -58.98767 30510 ft 436 kts 82°
2026-04-25 16:44 -2.70833 -58.95749 30844 ft 437 kts 82°
2026-04-25 16:44 -2.70450 -58.92727 31157 ft 438 kts 82°
2026-04-25 16:44 -2.70070 -58.89737 31442 ft 439 kts 82°
2026-04-25 16:45 -2.69684 -58.86697 31724 ft 441 kts 83°
2026-04-25 16:45 -2.69297 -58.83652 32000 ft 442 kts 83°
2026-04-25 16:45 -2.68909 -58.80595 32286 ft 443 kts 83°
2026-04-25 16:45 -2.68520 -58.77532 32579 ft 444 kts 83°
2026-04-25 16:46 -2.68131 -58.74472 32974 ft 442 kts 83°
2026-04-25 16:46 -2.67745 -58.71436 33444 ft 438 kts 83°
2026-04-25 16:46 -2.67362 -58.68424 33910 ft 435 kts 83°
2026-04-25 16:46 -2.67233 -58.67410 34038 ft 434 kts 83°
2026-04-25 16:47 -2.66599 -58.62426 34516 ft 434 kts 83°
2026-04-25 16:47 -2.66219 -58.59434 34799 ft 434 kts 83°
2026-04-25 16:47 -2.65838 -58.56439 34933 ft 437 kts 83°
2026-04-25 16:47 -2.65454 -58.53417 34941 ft 438 kts 83°
2026-04-25 16:48 -2.65030 -58.47406 34937 ft 433 kts 89°
2026-04-25 16:48 -2.65010 -58.41400 34944 ft 431 kts 90°
2026-04-25 16:49 -2.64997 -58.35393 34937 ft 431 kts 89°
2026-04-25 16:49 -2.64932 -58.29396 34942 ft 431 kts 89°
2026-04-25 16:50 -2.64838 -58.23395 34934 ft 432 kts 89°
2026-04-25 16:50 -2.64737 -58.17382 34940 ft 432 kts 89°
2026-04-25 16:51 -2.64636 -58.11364 34933 ft 432 kts 89°
2026-04-25 16:51 -2.64569 -58.07377 34936 ft 433 kts 89°
2026-04-25 16:52 -2.64437 -57.99463 34933 ft 433 kts 89°
2026-04-25 16:52 -2.64336 -57.93427 34937 ft 433 kts 89°
2026-04-25 16:53 -2.64184 -57.84393 34935 ft 433 kts 89°
2026-04-25 16:54 -2.64083 -57.78363 34935 ft 433 kts 89°
2026-04-25 16:54 -2.63981 -57.72338 34931 ft 433 kts 89°
2026-04-25 16:55 -2.63879 -57.66361 34933 ft 432 kts 89°
2026-04-25 16:55 -2.63777 -57.60343 34930 ft 432 kts 89°
2026-04-25 16:56 -2.63674 -57.54321 34927 ft 432 kts 89°
2026-04-25 16:56 -2.63572 -57.48343 34932 ft 432 kts 89°
2026-04-25 16:57 -2.63469 -57.42338 34925 ft 432 kts 89°
2026-04-25 16:57 -2.63366 -57.36320 34929 ft 432 kts 89°
2026-04-25 16:58 -2.63262 -57.30313 34927 ft 432 kts 89°
2026-04-25 16:58 -2.63158 -57.24297 34927 ft 432 kts 89°
2026-04-25 16:59 -2.63053 -57.18276 34927 ft 432 kts 89°
2026-04-25 16:59 -2.62950 -57.12305 34925 ft 432 kts 89°
2026-04-25 17:00 -2.62845 -57.06290 34928 ft 433 kts 89°
2026-04-25 17:00 -2.62756 -57.01239 34927 ft 433 kts 89°
2026-04-25 17:01 -2.62653 -56.95368 34928 ft 433 kts 89°
2026-04-25 17:01 -2.62547 -56.89336 34914 ft 433 kts 89°
2026-04-25 17:01 -2.62494 -56.86297 34409 ft 438 kts 89°
2026-04-25 17:02 -2.62440 -56.83252 33804 ft 437 kts 89°
2026-04-25 17:02 -2.62386 -56.80205 33091 ft 438 kts 89°
2026-04-25 17:02 -2.62333 -56.77154 32388 ft 439 kts 88°
2026-04-25 17:02 -2.62297 -56.75140 32062 ft 436 kts 88°
2026-04-25 17:03 -2.62226 -56.71102 31392 ft 432 kts 88°
2026-04-25 17:03 -2.62173 -56.68143 30905 ft 429 kts 88°
2026-04-25 17:03 -2.62120 -56.65127 30387 ft 427 kts 88°
2026-04-25 17:03 -2.62068 -56.62199 29887 ft 425 kts 88°
2026-04-25 17:04 -2.62015 -56.59257 29313 ft 422 kts 88°
2026-04-25 17:04 -2.61963 -56.56331 28798 ft 419 kts 88°
2026-04-25 17:04 -2.61911 -56.53429 28292 ft 416 kts 88°
2026-04-25 17:04 -2.61859 -56.50548 27794 ft 412 kts 88°
2026-04-25 17:05 -2.61808 -56.47689 27304 ft 409 kts 88°
2026-04-25 17:05 -2.61689 -56.42036 26340 ft 404 kts 85°
2026-04-25 17:05 -2.61435 -56.39246 25853 ft 401 kts 82°
2026-04-25 17:06 -2.61083 -56.36489 25366 ft 399 kts 82°
2026-04-25 17:06 -2.60720 -56.33737 24878 ft 398 kts 82°
2026-04-25 17:06 -2.60385 -56.31028 24402 ft 397 kts 83°
2026-04-25 17:06 -2.60065 -56.28292 23929 ft 396 kts 83°
2026-04-25 17:07 -2.59752 -56.25555 23417 ft 395 kts 83°
2026-04-25 17:07 -2.59440 -56.22824 22846 ft 395 kts 83°
2026-04-25 17:07 -2.59128 -56.20102 22355 ft 391 kts 83°
2026-04-25 17:07 -2.58819 -56.17408 21871 ft 388 kts 83°
2026-04-25 17:08 -2.58512 -56.14733 21405 ft 385 kts 83°
2026-04-25 17:08 -2.58208 -56.12081 20928 ft 382 kts 83°
2026-04-25 17:08 -2.57905 -56.09445 20477 ft 380 kts 83°
2026-04-25 17:08 -2.57605 -56.06832 20020 ft 377 kts 83°
2026-04-25 17:09 -2.57306 -56.04230 19547 ft 375 kts 83°
2026-04-25 17:09 -2.57012 -56.01677 19095 ft 373 kts 83°
2026-04-25 17:09 -2.56727 -55.99195 18647 ft 372 kts 83°
2026-04-25 17:09 -2.56432 -55.96624 18186 ft 370 kts 83°
2026-04-25 17:10 -2.56138 -55.94075 17679 ft 368 kts 83°
2026-04-25 17:10 -2.55847 -55.91538 17199 ft 366 kts 83°
2026-04-25 17:10 -2.55557 -55.89021 16741 ft 363 kts 83°
2026-04-25 17:10 -2.55269 -55.86519 16287 ft 360 kts 83°
2026-04-25 17:11 -2.54984 -55.84040 15849 ft 357 kts 83°
2026-04-25 17:11 -2.54701 -55.81581 15405 ft 355 kts 83°
2026-04-25 17:11 -2.54419 -55.79131 14952 ft 353 kts 83°
2026-04-25 17:11 -2.54139 -55.76698 14510 ft 352 kts 83°
2026-04-25 17:12 -2.53859 -55.74271 14061 ft 350 kts 83°
2026-04-25 17:12 -2.53581 -55.71859 13606 ft 349 kts 83°
2026-04-25 17:12 -2.53308 -55.69486 13144 ft 347 kts 83°
2026-04-25 17:12 -2.53033 -55.67100 12706 ft 344 kts 83°
2026-04-25 17:13 -2.52761 -55.64734 12274 ft 341 kts 83°
2026-04-25 17:13 -2.52578 -55.63145 11984 ft 340 kts 83°
2026-04-25 17:13 -2.52221 -55.60049 11427 ft 336 kts 83°
2026-04-25 17:13 -2.51954 -55.57733 11009 ft 334 kts 83°
2026-04-25 17:14 -2.51690 -55.55431 10609 ft 333 kts 83°
2026-04-25 17:14 -2.51426 -55.53139 10371 ft 325 kts 83°
2026-04-25 17:14 -2.51169 -55.50924 10197 ft 316 kts 83°
2026-04-25 17:14 -2.50920 -55.48769 10061 ft 306 kts 83°
2026-04-25 17:15 -2.50691 -55.46707 9921 ft 290 kts 84°
2026-04-25 17:15 -2.50494 -55.44749 9616 ft 283 kts 84°
2026-04-25 17:15 -2.50302 -55.42793 9322 ft 282 kts 84°
2026-04-25 17:15 -2.50112 -55.40848 9024 ft 280 kts 84°
2026-04-25 17:16 -2.49922 -55.38915 8718 ft 279 kts 84°
2026-04-25 17:16 -2.49732 -55.36988 8413 ft 278 kts 84°
2026-04-25 17:16 -2.49542 -55.35071 8120 ft 277 kts 84°
2026-04-25 17:16 -2.49353 -55.33156 7811 ft 276 kts 84°
2026-04-25 17:17 -2.49163 -55.31243 7505 ft 275 kts 84°
2026-04-25 17:17 -2.48977 -55.29371 7219 ft 274 kts 84°
2026-04-25 17:17 -2.48789 -55.27479 6931 ft 273 kts 85°
2026-04-25 17:17 -2.48602 -55.25594 6632 ft 272 kts 84°
2026-04-25 17:18 -2.48414 -55.23707 6339 ft 272 kts 84°
2026-04-25 17:18 -2.48227 -55.21825 6022 ft 272 kts 84°
2026-04-25 17:18 -2.48040 -55.19948 5724 ft 271 kts 84°
2026-04-25 17:18 -2.47854 -55.18078 5432 ft 270 kts 84°
2026-04-25 17:19 -2.47669 -55.16213 5146 ft 269 kts 84°
2026-04-25 17:19 -2.47483 -55.14349 4843 ft 269 kts 84°
2026-04-25 17:19 -2.47298 -55.12493 4544 ft 268 kts 84°
2026-04-25 17:19 -2.47115 -55.10651 4402 ft 260 kts 85°
2026-04-25 17:20 -2.46938 -55.08874 4292 ft 253 kts 85°
2026-04-25 17:20 -2.46766 -55.07149 4164 ft 246 kts 84°
2026-04-25 17:20 -2.46553 -55.05481 4060 ft 238 kts 81°
2026-04-25 17:20 -2.46287 -55.03901 3964 ft 229 kts 81°
2026-04-25 17:21 -2.46025 -55.02358 3877 ft 221 kts 81°
2026-04-25 17:21 -2.45762 -55.00867 3799 ft 213 kts 80°
2026-04-25 17:21 -2.45527 -54.99499 3703 ft 204 kts 80°
2026-04-25 17:21 -2.45299 -54.98113 3468 ft 200 kts 81°
2026-04-25 17:22 -2.45079 -54.96759 3277 ft 194 kts 81°
2026-04-25 17:22 -2.44933 -54.95862 3141 ft 194 kts 81°
2026-04-25 17:22 -2.44647 -54.94115 2882 ft 190 kts 81°
2026-04-25 17:22 -2.44437 -54.92824 2652 ft 187 kts 80°
2026-04-25 17:23 -2.44230 -54.91550 2401 ft 184 kts 80°
2026-04-25 17:23 -2.44027 -54.90293 2142 ft 181 kts 79°
2026-04-25 17:23 -2.43828 -54.89071 1919 ft 175 kts 79°
2026-04-25 17:23 -2.43639 -54.87907 1687 ft 163 kts 78°
2026-04-25 17:24 -2.43462 -54.86820 1479 ft 154 kts 78°
2026-04-25 17:24 -2.43302 -54.85832 1274 ft 140 kts 79°
2026-04-25 17:24 -2.43151 -54.84889 1121 ft 137 kts 79°
2026-04-25 17:24 -2.42993 -54.83934 960 ft 138 kts 80°
2026-04-25 17:25 -2.42841 -54.82990 764 ft 134 kts 78°
2026-04-25 17:25 -2.42691 -54.82071 578 ft 131 kts 79°
2026-04-25 17:25 -2.42542 -54.81157 426 ft 132 kts 80°
2026-04-25 17:25 -2.42394 -54.80251 252 ft 134 kts 81°
2026-04-25 17:26 -2.42255 -54.79383 212 ft 109 kts 80°
2026-04-25 17:26 -2.42171 -54.78866 211 ft 26 kts 81°
2026-04-25 17:26 -2.42176 -54.78768 211 ft 13 kts 118°
2026-04-25 17:26 -2.42240 -54.78700 205 ft 14 kts 138°
2026-04-25 17:27 -2.42295 -54.78651 205 ft 9 kts 139°
2026-04-25 17:27 -2.42329 -54.78617 213 ft 6 kts 132°
2026-04-25 17:27 -2.42352 -54.78581 216 ft 6 kts 93°
2026-04-25 17:27 -2.42348 -54.78567 205 ft 6 kts 65°
2026-04-25 17:28 -2.42352 -54.78511 216 ft 5 kts 155°
2026-04-25 17:28 -2.42362 -54.78506 208 ft 0 kts 155°